Wetterdaten: Samstag, 29.03.2014
Datum Zeit Temperatur Luftfeuchte Luftdruck Regen Wind Richtung Richtung Taupunkt Windchill Windben
29.03.2014 00:00 -0,5 C 84 % 1018,8 hPa 0,0 l/m 0,0 km/h (0 Bft) SW 225 -2,9 C 16,1 C 0,0 km/h (0 Bft)
29.03.2014 00:05 -0,7 C 84 % 1018,8 hPa 0,0 l/m 0,0 km/h (0 Bft) SW 225 -3,1 C 16,1 C 0,0 km/h (0 Bft)
29.03.2014 00:10 -0,7 C 84 % 1018,7 hPa 0,0 l/m 0,0 km/h (0 Bft) SW 225 -3,1 C 16,1 C 0,0 km/h (0 Bft)
29.03.2014 00:15 -0,5 C 84 % 1018,7 hPa 0,0 l/m 0,0 km/h (0 Bft) SW 225 -2,9 C 16,1 C 0,0 km/h (0 Bft)
29.03.2014 00:20 -0,3 C 85 % 1018,7 hPa 0,0 l/m 0,0 km/h (0 Bft) SW 225 -2,5 C 16,1 C 0,0 km/h (0 Bft)
29.03.2014 00:25 -0,6 C 86 % 1018,7 hPa 0,0 l/m 0,0 km/h (0 Bft) SW 225 -2,6 C 16,1 C 0,0 km/h (0 Bft)
29.03.2014 00:30 -0,6 C 85 % 1018,5 hPa 0,0 l/m 0,0 km/h (0 Bft) SW 225 -2,8 C 16,1 C 0,0 km/h (0 Bft)
29.03.2014 00:35 -0,3 C 86 % 1018,5 hPa 0,0 l/m 0,0 km/h (0 Bft) SW 225 -2,3 C 16,1 C 0,0 km/h (0 Bft)
29.03.2014 00:40 0,1 C 86 % 1018,5 hPa 0,0 l/m 0,0 km/h (0 Bft) SW 225 -2,0 C 16,1 C 0,0 km/h (0 Bft)
29.03.2014 00:45 0,4 C 87 % 1018,5 hPa 0,0 l/m 0,0 km/h (0 Bft) SW 225 -1,5 C 16,1 C 0,0 km/h (0 Bft)
29.03.2014 00:50 0,0 C 86 % 1018,7 hPa 0,0 l/m 0,0 km/h (0 Bft) SW 225 -2,1 C 16,1 C 0,0 km/h (0 Bft)
29.03.2014 00:55 -0,3 C 86 % 1018,7 hPa 0,0 l/m 0,0 km/h (0 Bft) SW 225 -2,3 C 16,1 C 0,0 km/h (0 Bft)
29.03.2014 01:00 0,0 C 87 % 1018,7 hPa 0,0 l/m 0,0 km/h (0 Bft) SW 225 -1,9 C 16,1 C 0,0 km/h (0 Bft)
29.03.2014 01:05 0,3 C 88 % 1018,7 hPa 0,0 l/m 0,0 km/h (0 Bft) SW 225 -1,4 C 16,1 C 0,0 km/h (0 Bft)
29.03.2014 01:10 0,2 C 88 % 1018,7 hPa 0,0 l/m 0,0 km/h (0 Bft) SW 225 -1,5 C 16,1 C 0,0 km/h (0 Bft)
29.03.2014 01:15 0,6 C 87 % 1018,7 hPa 0,0 l/m 0,0 km/h (0 Bft) SW 225 -1,3 C 16,1 C 0,0 km/h (0 Bft)
29.03.2014 01:20 0,1 C 86 % 1018,7 hPa 0,0 l/m 0,0 km/h (0 Bft) SW 225 -2,0 C 16,1 C 0,0 km/h (0 Bft)
29.03.2014 01:25 -0,4 C 86 % 1018,7 hPa 0,0 l/m 0,0 km/h (0 Bft) SW 225 -2,4 C 16,1 C 0,0 km/h (0 Bft)
29.03.2014 01:30 -0,6 C 86 % 1018,7 hPa 0,0 l/m 0,0 km/h (0 Bft) SW 225 -2,6 C 16,1 C 0,0 km/h (0 Bft)
29.03.2014 01:35 -0,3 C 86 % 1018,7 hPa 0,0 l/m 0,0 km/h (0 Bft) SW 225 -2,3 C 16,1 C 0,0 km/h (0 Bft)
29.03.2014 01:40 -0,4 C 86 % 1018,7 hPa 0,0 l/m 0,0 km/h (0 Bft) SW 225 -2,4 C 16,1 C 0,0 km/h (0 Bft)
29.03.2014 01:45 -0,7 C 86 % 1018,7 hPa 0,0 l/m 0,0 km/h (0 Bft) SW 225 -2,7 C 16,1 C 0,0 km/h (0 Bft)
29.03.2014 01:50 -0,8 C 86 % 1018,7 hPa 0,0 l/m 0,0 km/h (0 Bft) SW 225 -2,8 C 16,1 C 0,0 km/h (0 Bft)
29.03.2014 01:55 -0,5 C 87 % 1018,7 hPa 0,0 l/m 0,0 km/h (0 Bft) SW 225 -2,4 C 16,1 C 0,0 km/h (0 Bft)
29.03.2014 02:00 -0,9 C 87 % 1018,7 hPa 0,0 l/m 0,0 km/h (0 Bft) SW 225 -2,8 C 16,1 C 0,0 km/h (0 Bft)
29.03.2014 02:05 -1,2 C 87 % 1018,7 hPa 0,0 l/m 0,0 km/h (0 Bft) SW 225 -3,1 C 16,1 C 0,0 km/h (0 Bft)
29.03.2014 02:10 -1,2 C 87 % 1018,9 hPa 0,0 l/m 0,0 km/h (0 Bft) SW 225 -3,1 C 16,1 C 0,0 km/h (0 Bft)
29.03.2014 02:15 -1,5 C 87 % 1018,9 hPa 0,0 l/m 0,0 km/h (0 Bft) SW 225 -3,4 C 16,1 C 0,0 km/h (0 Bft)
29.03.2014 02:20 -1,5 C 86 % 1018,9 hPa 0,0 l/m 0,0 km/h (0 Bft) SW 225 -3,5 C 16,1 C 0,0 km/h (0 Bft)
29.03.2014 02:25 -1,9 C 86 % 1018,9 hPa 0,0 l/m 0,0 km/h (0 Bft) SW 225 -3,9 C 16,1 C 0,0 km/h (0 Bft)
29.03.2014 02:30 -2,1 C 86 % 1018,4 hPa 0,0 l/m 0,0 km/h (0 Bft) SW 225 -4,1 C 16,1 C 0,0 km/h (0 Bft)
29.03.2014 02:35 -1,1 C 87 % 1018,4 hPa 0,0 l/m 0,0 km/h (0 Bft) SW 225 -3,0 C 16,1 C 0,0 km/h (0 Bft)
29.03.2014 02:40 -1,5 C 87 % 1018,4 hPa 0,0 l/m 0,0 km/h (0 Bft) SW 225 -3,4 C 16,1 C 0,0 km/h (0 Bft)
29.03.2014 02:45 -1,8 C 87 % 1018,4 hPa 0,0 l/m 0,0 km/h (0 Bft) SW 225 -3,7 C 16,1 C 0,0 km/h (0 Bft)
29.03.2014 02:50 -1,3 C 87 % 1018,2 hPa 0,0 l/m 0,0 km/h (0 Bft) SW 225 -3,2 C 16,1 C 0,0 km/h (0 Bft)
29.03.2014 02:55 -1,9 C 87 % 1018,2 hPa 0,0 l/m 0,0 km/h (0 Bft) SW 225 -3,8 C 16,1 C 0,0 km/h (0 Bft)
29.03.2014 03:00 -2,2 C 87 % 1018,2 hPa 0,0 l/m 0,0 km/h (0 Bft) SW 225 -4,1 C 16,1 C 0,0 km/h (0 Bft)
29.03.2014 03:05 -2,3 C 87 % 1018,2 hPa 0,0 l/m 0,0 km/h (0 Bft) SW 225 -4,2 C 16,1 C 0,0 km/h (0 Bft)
29.03.2014 03:10 -2,0 C 88 % 1018,1 hPa 0,0 l/m 0,0 km/h (0 Bft) SW 225 -3,7 C 16,1 C 0,0 km/h (0 Bft)
29.03.2014 03:15 -2,3 C 88 % 1018,1 hPa 0,0 l/m 0,0 km/h (0 Bft) SW 225 -4,0 C 16,1 C 0,0 km/h (0 Bft)
29.03.2014 03:20 -2,2 C 88 % 1018,1 hPa 0,0 l/m 0,0 km/h (0 Bft) SW 225 -3,9 C 16,1 C 0,0 km/h (0 Bft)
29.03.2014 03:23 -1,9 C 88 % 1018,1 hPa 0,0 l/m 0,0 km/h (0 Bft) SW 225 -3,6 C 16,1 C 0,0 km/h (0 Bft)
29.03.2014 03:25 -1,9 C 88 % 1018,1 hPa 0,0 l/m 0,0 km/h (0 Bft) SW 225 -3,6 C 16,1 C 0,0 km/h (0 Bft)
29.03.2014 03:30 -1,3 C 89 % 1018,2 hPa 0,0 l/m 0,0 km/h (0 Bft) SW 225 -2,9 C 16,1 C 0,0 km/h (0 Bft)
29.03.2014 03:35 -1,3 C 89 % 1018,2 hPa 0,0 l/m 0,0 km/h (0 Bft) SW 225 -2,9 C 16,1 C 0,0 km/h (0 Bft)
29.03.2014 03:40 -1,0 C 89 % 1018,2 hPa 0,0 l/m 0,0 km/h (0 Bft) SW 225 -2,6 C 16,1 C 0,0 km/h (0 Bft)
29.03.2014 03:45 -1,7 C 89 % 1018,2 hPa 0,0 l/m 0,0 km/h (0 Bft) SW 225 -3,3 C 16,1 C 0,0 km/h (0 Bft)
29.03.2014 03:50 -1,7 C 89 % 1018,2 hPa 0,0 l/m 0,0 km/h (0 Bft) SW 225 -3,3 C 16,1 C 0,0 km/h (0 Bft)
29.03.2014 03:55 -2,0 C 88 % 1018,2 hPa 0,0 l/m 0,0 km/h (0 Bft) SW 225 -3,7 C 16,1 C 0,0 km/h (0 Bft)
29.03.2014 04:00 -2,1 C 88 % 1018,2 hPa 0,0 l/m 0,0 km/h (0 Bft) SW 225 -3,8 C 16,1 C 0,0 km/h (0 Bft)
29.03.2014 04:05 -1,7 C 89 % 1018,2 hPa 0,0 l/m 0,0 km/h (0 Bft) SW 225 -3,3 C 16,1 C 0,0 km/h (0 Bft)
29.03.2014 04:10 -1,9 C 89 % 1018,2 hPa 0,0 l/m 0,0 km/h (0 Bft) SW 225 -3,5 C 16,1 C 0,0 km/h (0 Bft)
29.03.2014 04:15 -1,9 C 89 % 1018,2 hPa 0,0 l/m 0,0 km/h (0 Bft) SW 225 -3,5 C 16,1 C 0,0 km/h (0 Bft)
29.03.2014 04:20 -1,7 C 89 % 1018,2 hPa 0,0 l/m 0,0 km/h (0 Bft) SW 225 -3,3 C 16,1 C 0,0 km/h (0 Bft)
29.03.2014 04:25 -1,7 C 89 % 1018,2 hPa 0,0 l/m 0,0 km/h (0 Bft) SW 225 -3,3 C 16,1 C 0,0 km/h (0 Bft)
29.03.2014 04:30 -2,0 C 89 % 1018,2 hPa 0,0 l/m 0,0 km/h (0 Bft) SW 225 -3,6 C 16,1 C 0,0 km/h (0 Bft)
29.03.2014 04:35 -2,0 C 89 % 1018,2 hPa 0,0 l/m 0,0 km/h (0 Bft) SW 225 -3,6 C 16,1 C 0,0 km/h (0 Bft)
29.03.2014 04:40 -2,2 C 88 % 1018,2 hPa 0,0 l/m 0,0 km/h (0 Bft) SW 225 -3,9 C 16,1 C 0,0 km/h (0 Bft)
29.03.2014 04:45 -2,0 C 89 % 1018,2 hPa 0,0 l/m 0,0 km/h (0 Bft) SW 225 -3,6 C 16,1 C 0,0 km/h (0 Bft)
29.03.2014 04:50 -1,0 C 89 % 1018,4 hPa 0,0 l/m 0,0 km/h (0 Bft) SW 225 -2,6 C 16,1 C 0,0 km/h (0 Bft)
29.03.2014 04:55 -1,4 C 88 % 1018,4 hPa 0,0 l/m 0,0 km/h (0 Bft) SW 225 -3,1 C 16,1 C 0,0 km/h (0 Bft)
29.03.2014 05:00 -2,1 C 88 % 1018,4 hPa 0,0 l/m 0,0 km/h (0 Bft) SW 225 -3,8 C 16,1 C 0,0 km/h (0 Bft)
29.03.2014 05:05 -2,6 C 87 % 1018,4 hPa 0,0 l/m 0,0 km/h (0 Bft) SW 225 -4,5 C 16,1 C 0,0 km/h (0 Bft)
29.03.2014 05:10 -2,6 C 87 % 1018,4 hPa 0,0 l/m 0,0 km/h (0 Bft) SW 225 -4,5 C 16,1 C 0,0 km/h (0 Bft)
29.03.2014 05:15 -2,6 C 87 % 1018,4 hPa 0,0 l/m 0,0 km/h (0 Bft) SW 225 -4,5 C 16,1 C 0,0 km/h (0 Bft)
29.03.2014 05:20 -2,7 C 87 % 1018,4 hPa 0,0 l/m 0,0 km/h (0 Bft) SW 225 -4,6 C 16,1 C 0,0 km/h (0 Bft)
29.03.2014 05:25 -2,2 C 88 % 1018,4 hPa 0,0 l/m 0,0 km/h (0 Bft) SW 225 -3,9 C 16,1 C 0,0 km/h (0 Bft)
29.03.2014 05:30 -2,2 C 88 % 1018,4 hPa 0,0 l/m 0,0 km/h (0 Bft) SW 225 -3,9 C 16,1 C 0,0 km/h (0 Bft)
29.03.2014 05:35 -2,4 C 88 % 1018,4 hPa 0,0 l/m 0,0 km/h (0 Bft) SW 225 -4,1 C 16,1 C 0,0 km/h (0 Bft)
29.03.2014 05:40 -2,7 C 87 % 1018,4 hPa 0,0 l/m 0,0 km/h (0 Bft) SW 225 -4,6 C 16,1 C 0,0 km/h (0 Bft)
29.03.2014 05:45 -2,9 C 87 % 1018,4 hPa 0,0 l/m 0,0 km/h (0 Bft) SW 225 -4,8 C 16,1 C 0,0 km/h (0 Bft)
29.03.2014 05:50 -2,9 C 87 % 1018,4 hPa 0,0 l/m 0,0 km/h (0 Bft) SW 225 -4,8 C 16,1 C 0,0 km/h (0 Bft)
29.03.2014 05:55 -2,7 C 87 % 1018,4 hPa 0,0 l/m 0,0 km/h (0 Bft) SW 225 -4,6 C 16,1 C 0,0 km/h (0 Bft)
29.03.2014 06:00 -2,5 C 88 % 1018,4 hPa 0,0 l/m 0,0 km/h (0 Bft) SW 225 -4,2 C 16,1 C 0,0 km/h (0 Bft)
29.03.2014 06:05 -1,7 C 87 % 1018,4 hPa 0,0 l/m 0,0 km/h (0 Bft) SW 225 -3,6 C 16,1 C 0,0 km/h (0 Bft)
29.03.2014 06:10 -2,3 C 87 % 1018,7 hPa 0,0 l/m 0,0 km/h (0 Bft) SW 225 -4,2 C 16,1 C 0,0 km/h (0 Bft)
29.03.2014 06:15 -2,3 C 86 % 1018,7 hPa 0,0 l/m 0,0 km/h (0 Bft) SW 225 -4,3 C 16,1 C 0,0 km/h (0 Bft)
29.03.2014 06:20 -0,8 C 86 % 1018,7 hPa 0,0 l/m 0,0 km/h (0 Bft) SW 225 -2,8 C 16,1 C 0,0 km/h (0 Bft)
29.03.2014 06:25 -0,6 C 85 % 1018,7 hPa 0,0 l/m 0,0 km/h (0 Bft) SW 225 -2,8 C 16,1 C 0,0 km/h (0 Bft)
29.03.2014 06:30 -0,7 C 83 % 1018,6 hPa 0,0 l/m 0,0 km/h (0 Bft) SW 225 -3,2 C 16,1 C 0,0 km/h (0 Bft)
29.03.2014 06:35 -2,2 C 82 % 1018,6 hPa 0,0 l/m 0,0 km/h (0 Bft) SW 225 -4,8 C 16,1 C 0,0 km/h (0 Bft)
29.03.2014 06:40 -1,6 C 82 % 1018,6 hPa 0,0 l/m 0,0 km/h (0 Bft) SW 225 -4,3 C 16,1 C 0,0 km/h (0 Bft)
29.03.2014 06:45 -2,4 C 81 % 1018,6 hPa 0,0 l/m 0,0 km/h (0 Bft) SW 225 -5,2 C 16,1 C 0,0 km/h (0 Bft)
29.03.2014 06:50 -2,5 C 81 % 1018,7 hPa 0,0 l/m 0,0 km/h (0 Bft) SW 225 -5,3 C 16,1 C 0,0 km/h (0 Bft)
29.03.2014 06:55 -2,3 C 82 % 1018,7 hPa 0,0 l/m 0,0 km/h (0 Bft) SW 225 -4,9 C 16,1 C 0,0 km/h (0 Bft)
29.03.2014 07:00 -2,1 C 82 % 1018,7 hPa 0,0 l/m 0,0 km/h (0 Bft) SW 225 -4,7 C 16,1 C 0,0 km/h (0 Bft)
29.03.2014 07:05 -2,5 C 82 % 1018,7 hPa 0,0 l/m 0,0 km/h (0 Bft) SW 225 -5,1 C 16,1 C 0,0 km/h (0 Bft)
29.03.2014 07:10 -2,4 C 82 % 1018,8 hPa 0,0 l/m 0,0 km/h (0 Bft) SW 225 -5,0 C 16,1 C 0,0 km/h (0 Bft)
29.03.2014 07:15 -2,1 C 83 % 1018,8 hPa 0,0 l/m 0,0 km/h (0 Bft) SW 225 -4,6 C 16,1 C 0,0 km/h (0 Bft)
29.03.2014 07:20 -1,1 C 83 % 1018,8 hPa 0,0 l/m 0,0 km/h (0 Bft) SW 225 -3,6 C 16,1 C 0,0 km/h (0 Bft)
29.03.2014 07:25 3,4 C 79 % 1018,8 hPa 0,0 l/m 0,0 km/h (0 Bft) SW 225 0,1 C 16,1 C 0,0 km/h (0 Bft)
29.03.2014 07:30 2,8 C 79 % 1018,8 hPa 0,0 l/m 0,0 km/h (0 Bft) SW 225 -0,5 C 16,1 C 0,0 km/h (0 Bft)
29.03.2014 07:35 6,4 C 72 % 1018,8 hPa 0,0 l/m 0,0 km/h (0 Bft) SW 225 1,7 C 16,1 C 0,0 km/h (0 Bft)
29.03.2014 07:40 8,4 C 72 % 1018,8 hPa 0,0 l/m 0,0 km/h (0 Bft) SW 225 3,7 C 16,1 C 0,0 km/h (0 Bft)
29.03.2014 07:45 5,1 C 71 % 1018,8 hPa 0,0 l/m 0,0 km/h (0 Bft) SW 225 0,3 C 16,1 C 0,0 km/h (0 Bft)
29.03.2014 07:50 3,1 C 71 % 1018,9 hPa 0,0 l/m 0,0 km/h (0 Bft) SW 225 -1,6 C 16,1 C 0,0 km/h (0 Bft)
29.03.2014 07:55 2,5 C 74 % 1018,9 hPa 0,0 l/m 0,0 km/h (0 Bft) SW 225 -1,7 C 16,1 C 0,0 km/h (0 Bft)
29.03.2014 08:00 4,6 C 69 % 1018,9 hPa 0,0 l/m 0,0 km/h (0 Bft) SW 225 -0,6 C 16,1 C 0,0 km/h (0 Bft)
29.03.2014 08:05 8,0 C 60 % 1018,9 hPa 0,0 l/m 0,0 km/h (0 Bft) SW 225 0,7 C 16,1 C 0,0 km/h (0 Bft)
29.03.2014 08:10 9,7 C 61 % 1019,4 hPa 0,0 l/m 0,0 km/h (0 Bft) SW 225 2,5 C 16,1 C 0,0 km/h (0 Bft)
29.03.2014 08:15 10,9 C 58 % 1019,4 hPa 0,0 l/m 0,0 km/h (0 Bft) SW 225 3,0 C 16,1 C 0,0 km/h (0 Bft)
29.03.2014 08:18 9,7 C 48 % 1019,4 hPa 0,0 l/m 0,0 km/h (0 Bft) SW 225 -0,8 C 16,1 C 0,0 km/h (0 Bft)
29.03.2014 08:20 9,7 C 48 % 1019,4 hPa 0,0 l/m 0,0 km/h (0 Bft) SW 225 -0,8 C 16,1 C 0,0 km/h (0 Bft)
29.03.2014 08:25 10,8 C 51 % 1019,4 hPa 0,0 l/m 0,0 km/h (0 Bft) SW 225 1,1 C 16,1 C 0,0 km/h (0 Bft)
29.03.2014 08:30 11,9 C 53 % 1019,4 hPa 0,0 l/m 0,0 km/h (0 Bft) SW 225 2,6 C 16,1 C 0,0 km/h (0 Bft)
29.03.2014 08:35 11,5 C 51 % 1019,4 hPa 0,0 l/m 0,0 km/h (0 Bft) SW 225 1,7 C 16,1 C 0,0 km/h (0 Bft)
29.03.2014 08:40 13,5 C 51 % 1019,4 hPa 0,0 l/m 0,0 km/h (0 Bft) SW 225 3,6 C 16,1 C 0,0 km/h (0 Bft)
29.03.2014 08:45 13,7 C 48 % 1019,4 hPa 0,0 l/m 0,0 km/h (0 Bft) SW 225 2,9 C 16,1 C 0,0 km/h (0 Bft)
29.03.2014 08:50 14,5 C 47 % 1019,9 hPa 0,0 l/m 0,0 km/h (0 Bft) SW 225 3,3 C 16,1 C 0,0 km/h (0 Bft)
29.03.2014 08:55 14,8 C 45 % 1019,9 hPa 0,0 l/m 0,0 km/h (0 Bft) SW 225 3,0 C 16,1 C 0,0 km/h (0 Bft)
29.03.2014 09:00 13,1 C 42 % 1019,9 hPa 0,0 l/m 0,0 km/h (0 Bft) SW 225 0,5 C 16,1 C 0,0 km/h (0 Bft)
29.03.2014 09:05 12,9 C 44 % 1019,9 hPa 0,0 l/m 0,0 km/h (0 Bft) SW 225 1,0 C 16,1 C 0,0 km/h (0 Bft)
29.03.2014 09:10 14,2 C 41 % 1020,2 hPa 0,0 l/m 0,0 km/h (0 Bft) SW 225 1,1 C 16,1 C 0,0 km/h (0 Bft)
29.03.2014 09:15 15,1 C 40 % 1020,2 hPa 0,0 l/m 0,0 km/h (0 Bft) SW 225 1,6 C 16,1 C 0,0 km/h (0 Bft)
29.03.2014 09:20 14,4 C 37 % 1020,2 hPa 0,0 l/m 0,0 km/h (0 Bft) SW 225 -0,1 C 16,1 C 0,0 km/h (0 Bft)
29.03.2014 09:25 14,4 C 36 % 1020,2 hPa 0,0 l/m 0,0 km/h (0 Bft) SW 225 -0,5 C 16,1 C 0,0 km/h (0 Bft)
29.03.2014 09:30 13,4 C 34 % 1020,8 hPa 0,0 l/m 0,0 km/h (0 Bft) SW 225 -2,1 C 16,1 C 0,0 km/h (0 Bft)
29.03.2014 09:35 14,1 C 34 % 1020,8 hPa 0,0 l/m 0,0 km/h (0 Bft) SW 225 -1,5 C 16,1 C 0,0 km/h (0 Bft)
29.03.2014 09:40 13,5 C 33 % 1020,8 hPa 0,0 l/m 0,0 km/h (0 Bft) SW 225 -2,4 C 16,1 C 0,0 km/h (0 Bft)
29.03.2014 09:46 13,9 C 32 % 1020,8 hPa 0,0 l/m 0,0 km/h (0 Bft) SW 225 -2,5 C 16,1 C 0,0 km/h (0 Bft)
29.03.2014 09:50 15,0 C 31 % 1020,9 hPa 0,0 l/m 0,0 km/h (0 Bft) SW 225 -2,0 C 16,1 C 0,0 km/h (0 Bft)
29.03.2014 09:55 16,2 C 34 % 1020,9 hPa 0,0 l/m 0,0 km/h (0 Bft) SW 225 0,3 C 16,1 C 0,0 km/h (0 Bft)
29.03.2014 10:00 15,7 C 32 % 1020,9 hPa 0,0 l/m 0,0 km/h (0 Bft) SW 225 -0,9 C 16,1 C 0,0 km/h (0 Bft)
29.03.2014 10:05 16,9 C 35 % 1020,9 hPa 0,0 l/m 0,0 km/h (0 Bft) SW 225 1,3 C 16,1 C 0,0 km/h (0 Bft)
29.03.2014 10:10 16,5 C 34 % 1021,1 hPa 0,0 l/m 0,0 km/h (0 Bft) SW 225 0,6 C 16,1 C 0,0 km/h (0 Bft)
29.03.2014 10:15 16,6 C 33 % 1021,1 hPa 0,0 l/m 0,0 km/h (0 Bft) SW 225 0,3 C 16,1 C 0,0 km/h (0 Bft)
29.03.2014 10:20 17,2 C 32 % 1021,1 hPa 0,0 l/m 0,0 km/h (0 Bft) SW 225 0,4 C 16,1 C 0,0 km/h (0 Bft)
29.03.2014 10:25 16,7 C 31 % 1021,1 hPa 0,0 l/m 0,0 km/h (0 Bft) SW 225 -0,5 C 16,1 C 0,0 km/h (0 Bft)
29.03.2014 10:30 16,8 C 32 % 1021,1 hPa 0,0 l/m 0,0 km/h (0 Bft) SW 225 0,0 C 16,1 C 0,0 km/h (0 Bft)
29.03.2014 10:35 17,4 C 32 % 1021,1 hPa 0,0 l/m 0,0 km/h (0 Bft) SW 225 0,5 C 16,1 C 0,0 km/h (0 Bft)
29.03.2014 10:40 17,9 C 30 % 1021,1 hPa 0,0 l/m 0,0 km/h (0 Bft) SW 225 0,1 C 16,1 C 0,0 km/h (0 Bft)
29.03.2014 10:45 17,5 C 27 % 1021,1 hPa 0,0 l/m 0,0 km/h (0 Bft) SW 225 -1,7 C 16,1 C 0,0 km/h (0 Bft)
29.03.2014 10:50 17,5 C 30 % 1021,0 hPa 0,0 l/m 0,0 km/h (0 Bft) SW 225 -0,3 C 16,1 C 0,0 km/h (0 Bft)
29.03.2014 10:55 18,1 C 29 % 1021,0 hPa 0,0 l/m 0,0 km/h (0 Bft) SW 225 -0,2 C 16,1 C 0,0 km/h (0 Bft)
29.03.2014 11:00 18,3 C 29 % 1021,0 hPa 0,0 l/m 0,0 km/h (0 Bft) SW 225 -0,0 C 16,1 C 0,0 km/h (0 Bft)
29.03.2014 11:05 18,8 C 27 % 1021,0 hPa 0,0 l/m 0,0 km/h (0 Bft) SW 225 -0,6 C 16,1 C 0,0 km/h (0 Bft)
29.03.2014 11:10 17,7 C 28 % 1021,1 hPa 0,0 l/m 0,0 km/h (0 Bft) SW 225 -1,0 C 16,1 C 0,0 km/h (0 Bft)
29.03.2014 11:15 18,7 C 28 % 1021,1 hPa 0,0 l/m 0,0 km/h (0 Bft) SW 225 -0,2 C 16,1 C 0,0 km/h (0 Bft)
29.03.2014 11:20 18,9 C 28 % 1021,1 hPa 0,0 l/m 0,0 km/h (0 Bft) SW 225 -0,0 C 16,1 C 0,0 km/h (0 Bft)
29.03.2014 11:25 19,5 C 29 % 1021,1 hPa 0,0 l/m 0,0 km/h (0 Bft) SW 225 1,0 C 16,1 C 0,0 km/h (0 Bft)
29.03.2014 11:30 19,3 C 27 % 1021,1 hPa 0,0 l/m 0,0 km/h (0 Bft) SW 225 -0,2 C 16,1 C 0,0 km/h (0 Bft)
29.03.2014 11:35 18,1 C 28 % 1021,1 hPa 0,0 l/m 0,0 km/h (0 Bft) SW 225 -0,7 C 16,1 C 0,0 km/h (0 Bft)
29.03.2014 11:40 19,0 C 30 % 1021,1 hPa 0,0 l/m 0,0 km/h (0 Bft) SW 225 1,0 C 16,1 C 0,0 km/h (0 Bft)
29.03.2014 11:45 19,1 C 30 % 1021,1 hPa 0,0 l/m 0,0 km/h (0 Bft) SW 225 1,1 C 16,1 C 0,0 km/h (0 Bft)
29.03.2014 11:50 18,1 C 30 % 1021,2 hPa 0,0 l/m 0,0 km/h (0 Bft) SW 225 0,3 C 16,1 C 0,0 km/h (0 Bft)
29.03.2014 11:55 18,9 C 31 % 1021,2 hPa 0,0 l/m 0,0 km/h (0 Bft) SW 225 1,4 C 16,1 C 0,0 km/h (0 Bft)
29.03.2014 12:00 18,6 C 31 % 1021,2 hPa 0,0 l/m 0,0 km/h (0 Bft) SW 225 1,1 C 16,1 C 0,0 km/h (0 Bft)
29.03.2014 12:05 18,1 C 30 % 1021,2 hPa 0,0 l/m 0,0 km/h (0 Bft) SW 225 0,3 C 16,1 C 0,0 km/h (0 Bft)
29.03.2014 12:10 18,1 C 31 % 1021,1 hPa 0,0 l/m 0,0 km/h (0 Bft) SW 225 0,7 C 16,1 C 0,0 km/h (0 Bft)
29.03.2014 12:15 17,5 C 31 % 1021,1 hPa 0,0 l/m 0,0 km/h (0 Bft) SW 225 0,2 C 16,1 C 0,0 km/h (0 Bft)
29.03.2014 12:20 17,6 C 32 % 1021,1 hPa 0,0 l/m 0,0 km/h (0 Bft) SW 225 0,7 C 16,1 C 0,0 km/h (0 Bft)
29.03.2014 12:25 17,4 C 30 % 1021,1 hPa 0,0 l/m 0,0 km/h (0 Bft) SW 225 -0,3 C 16,1 C 0,0 km/h (0 Bft)
29.03.2014 12:30 17,0 C 32 % 1021,4 hPa 0,0 l/m 0,0 km/h (0 Bft) SW 225 0,2 C 16,1 C 0,0 km/h (0 Bft)
29.03.2014 12:35 16,8 C 33 % 1021,4 hPa 0,0 l/m 0,0 km/h (0 Bft) SW 225 0,4 C 16,1 C 0,0 km/h (0 Bft)
29.03.2014 12:40 16,9 C 31 % 1021,4 hPa 0,0 l/m 0,0 km/h (0 Bft) SW 225 -0,3 C 16,1 C 0,0 km/h (0 Bft)
29.03.2014 12:45 16,8 C 32 % 1021,4 hPa 0,0 l/m 0,0 km/h (0 Bft) SW 225 0,0 C 16,1 C 0,0 km/h (0 Bft)
29.03.2014 12:50 17,7 C 32 % 1021,3 hPa 0,0 l/m 0,0 km/h (0 Bft) SW 225 0,8 C 16,1 C 0,0 km/h (0 Bft)
29.03.2014 12:55 17,0 C 31 % 1021,3 hPa 0,0 l/m 0,0 km/h (0 Bft) SW 225 -0,2 C 16,1 C 0,0 km/h (0 Bft)
29.03.2014 13:00 16,8 C 31 % 1021,3 hPa 0,0 l/m 0,0 km/h (0 Bft) SW 225 -0,4 C 16,1 C 0,0 km/h (0 Bft)
29.03.2014 13:05 17,2 C 30 % 1021,3 hPa 0,0 l/m 0,0 km/h (0 Bft) SW 225 -0,5 C 16,1 C 0,0 km/h (0 Bft)
29.03.2014 13:10 17,0 C 30 % 1021,2 hPa 0,0 l/m 0,0 km/h (0 Bft) SW 225 -0,7 C 16,1 C 0,0 km/h (0 Bft)
29.03.2014 13:15 18,1 C 29 % 1021,2 hPa 0,0 l/m 0,0 km/h (0 Bft) SW 225 -0,2 C 16,1 C 0,0 km/h (0 Bft)
29.03.2014 13:18 17,3 C 30 % 1021,2 hPa 0,0 l/m 0,0 km/h (0 Bft) SW 225 -0,4 C 16,1 C 0,0 km/h (0 Bft)
29.03.2014 13:20 17,3 C 30 % 1021,2 hPa 0,0 l/m 0,0 km/h (0 Bft) SW 225 -0,4 C 16,1 C 0,0 km/h (0 Bft)
29.03.2014 13:25 18,1 C 30 % 1021,2 hPa 0,0 l/m 0,0 km/h (0 Bft) SW 225 0,3 C 16,1 C 0,0 km/h (0 Bft)
29.03.2014 13:30 18,4 C 30 % 1020,9 hPa 0,0 l/m 0,0 km/h (0 Bft) SW 225 0,5 C 16,1 C 0,0 km/h (0 Bft)
29.03.2014 13:35 17,8 C 30 % 1020,9 hPa 0,0 l/m 0,0 km/h (0 Bft) SW 225 0,0 C 16,1 C 0,0 km/h (0 Bft)
29.03.2014 13:40 18,0 C 31 % 1020,9 hPa 0,0 l/m 0,0 km/h (0 Bft) SW 225 0,6 C 16,1 C 0,0 km/h (0 Bft)
29.03.2014 13:45 18,3 C 30 % 1020,9 hPa 0,0 l/m 0,0 km/h (0 Bft) SW 225 0,4 C 16,1 C 0,0 km/h (0 Bft)
29.03.2014 13:50 17,9 C 30 % 1020,7 hPa 0,0 l/m 0,0 km/h (0 Bft) SW 225 0,1 C 16,1 C 0,0 km/h (0 Bft)
29.03.2014 13:55 18,7 C 31 % 1020,7 hPa 0,0 l/m 0,0 km/h (0 Bft) SW 225 1,2 C 16,1 C 0,0 km/h (0 Bft)
29.03.2014 14:00 18,3 C 30 % 1020,7 hPa 0,0 l/m 0,0 km/h (0 Bft) SW 225 0,4 C 16,1 C 0,0 km/h (0 Bft)
29.03.2014 14:05 18,3 C 30 % 1020,7 hPa 0,0 l/m 0,0 km/h (0 Bft) SW 225 0,4 C 16,1 C 0,0 km/h (0 Bft)
29.03.2014 14:10 18,3 C 30 % 1020,4 hPa 0,0 l/m 0,0 km/h (0 Bft) SW 225 0,4 C 16,1 C 0,0 km/h (0 Bft)
29.03.2014 14:15 18,3 C 30 % 1020,4 hPa 0,0 l/m 0,0 km/h (0 Bft) SW 225 0,4 C 16,1 C 0,0 km/h (0 Bft)
29.03.2014 14:20 17,9 C 30 % 1020,4 hPa 0,0 l/m 0,0 km/h (0 Bft) SW 225 0,1 C 16,1 C 0,0 km/h (0 Bft)
29.03.2014 14:25 18,2 C 30 % 1020,4 hPa 0,0 l/m 0,0 km/h (0 Bft) SW 225 0,3 C 16,1 C 0,0 km/h (0 Bft)
29.03.2014 14:30 18,1 C 30 % 1020,2 hPa 0,0 l/m 0,0 km/h (0 Bft) SW 225 0,3 C 16,1 C 0,0 km/h (0 Bft)
29.03.2014 14:35 18,5 C 30 % 1020,2 hPa 0,0 l/m 0,0 km/h (0 Bft) SW 225 0,6 C 16,1 C 0,0 km/h (0 Bft)
29.03.2014 14:40 18,3 C 30 % 1020,2 hPa 0,0 l/m 0,0 km/h (0 Bft) SW 225 0,4 C 16,1 C 0,0 km/h (0 Bft)
29.03.2014 14:45 18,3 C 30 % 1020,2 hPa 0,0 l/m 0,0 km/h (0 Bft) SW 225 0,4 C 16,1 C 0,0 km/h (0 Bft)
29.03.2014 14:50 18,5 C 29 % 1020,0 hPa 0,0 l/m 0,0 km/h (0 Bft) SW 225 0,1 C 16,1 C 0,0 km/h (0 Bft)
29.03.2014 14:55 18,4 C 28 % 1020,0 hPa 0,0 l/m 0,0 km/h (0 Bft) SW 225 -0,4 C 16,1 C 0,0 km/h (0 Bft)
29.03.2014 15:00 18,5 C 29 % 1020,0 hPa 0,0 l/m 0,0 km/h (0 Bft) SW 225 0,1 C 16,1 C 0,0 km/h (0 Bft)
29.03.2014 15:05 18,0 C 29 % 1020,0 hPa 0,0 l/m 0,0 km/h (0 Bft) SW 225 -0,3 C 16,1 C 0,0 km/h (0 Bft)
29.03.2014 15:10 18,3 C 29 % 1019,8 hPa 0,0 l/m 0,0 km/h (0 Bft) SW 225 -0,0 C 16,1 C 0,0 km/h (0 Bft)
29.03.2014 15:15 18,4 C 29 % 1019,8 hPa 0,0 l/m 0,0 km/h (0 Bft) SW 225 0,1 C 16,1 C 0,0 km/h (0 Bft)
29.03.2014 15:20 18,3 C 29 % 1019,8 hPa 0,0 l/m 0,0 km/h (0 Bft) SW 225 -0,0 C 16,1 C 0,0 km/h (0 Bft)
29.03.2014 15:25 18,0 C 27 % 1019,8 hPa 0,0 l/m 0,0 km/h (0 Bft) SW 225 -1,3 C 16,1 C 0,0 km/h (0 Bft)
29.03.2014 15:30 17,9 C 28 % 1019,0 hPa 0,0 l/m 0,0 km/h (0 Bft) SW 225 -0,9 C 16,1 C 0,0 km/h (0 Bft)
29.03.2014 15:35 17,9 C 28 % 1019,0 hPa 0,0 l/m 0,0 km/h (0 Bft) SW 225 -0,9 C 16,1 C 0,0 km/h (0 Bft)
29.03.2014 15:40 18,2 C 28 % 1019,0 hPa 0,0 l/m 0,0 km/h (0 Bft) SW 225 -0,6 C 16,1 C 0,0 km/h (0 Bft)
29.03.2014 15:45 17,9 C 27 % 1019,0 hPa 0,0 l/m 0,0 km/h (0 Bft) SW 225 -1,4 C 16,1 C 0,0 km/h (0 Bft)
29.03.2014 15:50 17,7 C 28 % 1018,8 hPa 0,0 l/m 0,0 km/h (0 Bft) SW 225 -1,0 C 16,1 C 0,0 km/h (0 Bft)
29.03.2014 15:55 17,8 C 29 % 1018,8 hPa 0,0 l/m 0,0 km/h (0 Bft) SW 225 -0,5 C 16,1 C 0,0 km/h (0 Bft)
29.03.2014 16:00 17,7 C 30 % 1018,8 hPa 0,0 l/m 0,0 km/h (0 Bft) SW 225 -0,1 C 16,1 C 0,0 km/h (0 Bft)
29.03.2014 16:05 17,4 C 29 % 1018,8 hPa 0,0 l/m 0,0 km/h (0 Bft) SW 225 -0,8 C 16,1 C 0,0 km/h (0 Bft)
29.03.2014 16:10 17,1 C 29 % 1018,6 hPa 0,0 l/m 0,0 km/h (0 Bft) SW 225 -1,1 C 16,1 C 0,0 km/h (0 Bft)
29.03.2014 16:15 17,1 C 31 % 1018,6 hPa 0,0 l/m 0,0 km/h (0 Bft) SW 225 -0,2 C 16,1 C 0,0 km/h (0 Bft)
29.03.2014 16:20 16,9 C 31 % 1018,6 hPa 0,0 l/m 0,0 km/h (0 Bft) SW 225 -0,3 C 16,1 C 0,0 km/h (0 Bft)
29.03.2014 16:25 16,7 C 31 % 1018,6 hPa 0,0 l/m 0,0 km/h (0 Bft) SW 225 -0,5 C 16,1 C 0,0 km/h (0 Bft)
29.03.2014 16:30 16,5 C 32 % 1018,5 hPa 0,0 l/m 0,0 km/h (0 Bft) SW 225 -0,2 C 16,1 C 0,0 km/h (0 Bft)
29.03.2014 16:35 16,4 C 32 % 1018,5 hPa 0,0 l/m 0,0 km/h (0 Bft) SW 225 -0,3 C 16,1 C 0,0 km/h (0 Bft)
29.03.2014 16:40 16,1 C 33 % 1018,5 hPa 0,0 l/m 0,0 km/h (0 Bft) SW 225 -0,2 C 16,1 C 0,0 km/h (0 Bft)
29.03.2014 16:45 16,0 C 35 % 1018,5 hPa 0,0 l/m 0,0 km/h (0 Bft) SW 225 0,6 C 16,1 C 0,0 km/h (0 Bft)
29.03.2014 16:50 16,0 C 34 % 1018,4 hPa 0,0 l/m 0,0 km/h (0 Bft) SW 225 0,2 C 16,1 C 0,0 km/h (0 Bft)
29.03.2014 16:55 15,9 C 34 % 1018,4 hPa 0,0 l/m 0,0 km/h (0 Bft) SW 225 0,1 C 16,1 C 0,0 km/h (0 Bft)
29.03.2014 17:00 15,6 C 34 % 1018,4 hPa 0,0 l/m 0,0 km/h (0 Bft) SW 225 -0,2 C 16,1 C 0,0 km/h (0 Bft)
29.03.2014 17:05 15,6 C 35 % 1018,4 hPa 0,0 l/m 0,0 km/h (0 Bft) SW 225 0,2 C 16,1 C 0,0 km/h (0 Bft)
29.03.2014 17:10 15,5 C 36 % 1018,2 hPa 0,0 l/m 0,0 km/h (0 Bft) SW 225 0,5 C 16,1 C 0,0 km/h (0 Bft)
29.03.2014 17:15 15,1 C 37 % 1018,2 hPa 0,0 l/m 0,0 km/h (0 Bft) SW 225 0,5 C 16,1 C 0,0 km/h (0 Bft)
29.03.2014 17:20 14,8 C 39 % 1018,2 hPa 0,0 l/m 0,0 km/h (0 Bft) SW 225 1,0 C 16,1 C 0,0 km/h (0 Bft)
29.03.2014 17:25 14,3 C 40 % 1018,2 hPa 0,0 l/m 0,0 km/h (0 Bft) SW 225 0,9 C 16,1 C 0,0 km/h (0 Bft)
29.03.2014 17:30 14,0 C 41 % 1018,2 hPa 0,0 l/m 0,0 km/h (0 Bft) SW 225 1,0 C 16,1 C 0,0 km/h (0 Bft)
29.03.2014 17:35 13,7 C 44 % 1018,2 hPa 0,0 l/m 0,0 km/h (0 Bft) SW 225 1,7 C 16,1 C 0,0 km/h (0 Bft)
29.03.2014 17:40 13,3 C 45 % 1018,2 hPa 0,0 l/m 0,0 km/h (0 Bft) SW 225 1,6 C 16,1 C 0,0 km/h (0 Bft)
29.03.2014 17:45 13,0 C 45 % 1018,2 hPa 0,0 l/m 0,0 km/h (0 Bft) SW 225 1,4 C 16,1 C 0,0 km/h (0 Bft)
29.03.2014 17:50 12,8 C 47 % 1018,2 hPa 0,0 l/m 0,0 km/h (0 Bft) SW 225 1,8 C 16,1 C 0,0 km/h (0 Bft)
29.03.2014 17:55 12,3 C 47 % 1018,2 hPa 0,0 l/m 0,0 km/h (0 Bft) SW 225 1,3 C 16,1 C 0,0 km/h (0 Bft)
29.03.2014 18:00 12,2 C 48 % 1018,2 hPa 0,0 l/m 0,0 km/h (0 Bft) SW 225 1,5 C 16,1 C 0,0 km/h (0 Bft)
29.03.2014 18:05 12,0 C 51 % 1018,2 hPa 0,0 l/m 0,0 km/h (0 Bft) SW 225 2,2 C 16,1 C 0,0 km/h (0 Bft)
29.03.2014 18:10 11,9 C 52 % 1018,1 hPa 0,0 l/m 0,0 km/h (0 Bft) SW 225 2,4 C 16,1 C 0,0 km/h (0 Bft)
29.03.2014 18:15 11,6 C 53 % 1018,1 hPa 0,0 l/m 0,0 km/h (0 Bft) SW 225 2,4 C 16,1 C 0,0 km/h (0 Bft)
29.03.2014 18:18 11,5 C 53 % 1018,1 hPa 0,0 l/m 0,0 km/h (0 Bft) SW 225 2,3 C 16,1 C 0,0 km/h (0 Bft)
29.03.2014 18:20 11,5 C 53 % 1018,1 hPa 0,0 l/m 0,0 km/h (0 Bft) SW 225 2,3 C 16,1 C 0,0 km/h (0 Bft)
29.03.2014 18:25 11,3 C 53 % 1018,1 hPa 0,0 l/m 0,0 km/h (0 Bft) SW 225 2,1 C 16,1 C 0,0 km/h (0 Bft)
29.03.2014 18:30 11,0 C 54 % 1018,1 hPa 0,0 l/m 0,0 km/h (0 Bft) SW 225 2,1 C 16,1 C 0,0 km/h (0 Bft)
29.03.2014 18:35 10,6 C 55 % 1018,1 hPa 0,0 l/m 0,0 km/h (0 Bft) SW 225 1,9 C 16,1 C 0,0 km/h (0 Bft)
29.03.2014 18:40 10,5 C 56 % 1018,1 hPa 0,0 l/m 0,0 km/h (0 Bft) SW 225 2,1 C 16,1 C 0,0 km/h (0 Bft)
29.03.2014 18:45 10,2 C 56 % 1018,1 hPa 0,0 l/m 0,0 km/h (0 Bft) SW 225 1,8 C 16,1 C 0,0 km/h (0 Bft)
29.03.2014 18:50 10,0 C 56 % 1017,9 hPa 0,0 l/m 0,0 km/h (0 Bft) SW 225 1,6 C 16,1 C 0,0 km/h (0 Bft)
29.03.2014 18:55 8,7 C 57 % 1017,9 hPa 0,0 l/m 0,0 km/h (0 Bft) SW 225 0,7 C 16,1 C 0,0 km/h (0 Bft)
29.03.2014 19:00 8,4 C 58 % 1017,9 hPa 0,0 l/m 0,0 km/h (0 Bft) SW 225 0,6 C 16,1 C 0,0 km/h (0 Bft)
29.03.2014 19:05 8,7 C 59 % 1017,9 hPa 0,0 l/m 0,0 km/h (0 Bft) SW 225 1,1 C 16,1 C 0,0 km/h (0 Bft)
29.03.2014 19:10 8,7 C 59 % 1018,1 hPa 0,0 l/m 0,0 km/h (0 Bft) SW 225 1,1 C 16,1 C 0,0 km/h (0 Bft)
29.03.2014 19:15 9,0 C 59 % 1018,1 hPa 0,0 l/m 0,0 km/h (0 Bft) SW 225 1,4 C 16,1 C 0,0 km/h (0 Bft)
29.03.2014 19:20 8,8 C 60 % 1018,1 hPa 0,0 l/m 0,0 km/h (0 Bft) SW 225 1,5 C 16,1 C 0,0 km/h (0 Bft)
29.03.2014 19:25 6,8 C 62 % 1018,1 hPa 0,0 l/m 0,0 km/h (0 Bft) SW 225 0,0 C 16,1 C 0,0 km/h (0 Bft)
29.03.2014 19:30 6,8 C 63 % 1018,1 hPa 0,0 l/m 0,0 km/h (0 Bft) SW 225 0,3 C 16,1 C 0,0 km/h (0 Bft)
29.03.2014 19:35 7,2 C 65 % 1018,1 hPa 0,0 l/m 0,0 km/h (0 Bft) SW 225 1,1 C 16,1 C 0,0 km/h (0 Bft)
29.03.2014 19:40 6,8 C 64 % 1018,1 hPa 0,0 l/m 0,0 km/h (0 Bft) SW 225 0,5 C 16,1 C 0,0 km/h (0 Bft)
29.03.2014 19:45 5,7 C 67 % 1018,1 hPa 0,0 l/m 0,0 km/h (0 Bft) SW 225 0,1 C 16,1 C 0,0 km/h (0 Bft)
29.03.2014 19:50 5,5 C 67 % 1018,2 hPa 0,0 l/m 0,0 km/h (0 Bft) SW 225 -0,1 C 16,1 C 0,0 km/h (0 Bft)
29.03.2014 19:55 6,5 C 67 % 1018,2 hPa 0,0 l/m 0,0 km/h (0 Bft) SW 225 0,8 C 16,1 C 0,0 km/h (0 Bft)
29.03.2014 20:00 6,6 C 66 % 1018,2 hPa 0,0 l/m 0,0 km/h (0 Bft) SW 225 0,7 C 16,1 C 0,0 km/h (0 Bft)
29.03.2014 20:05 6,4 C 66 % 1018,2 hPa 0,0 l/m 0,0 km/h (0 Bft) SW 225 0,5 C 16,1 C 0,0 km/h (0 Bft)
29.03.2014 20:10 5,5 C 66 % 1018,4 hPa 0,0 l/m 0,0 km/h (0 Bft) SW 225 -0,3 C 16,1 C 0,0 km/h (0 Bft)
29.03.2014 20:15 5,7 C 68 % 1018,4 hPa 0,0 l/m 0,0 km/h (0 Bft) SW 225 0,3 C 16,1 C 0,0 km/h (0 Bft)
29.03.2014 20:20 5,9 C 68 % 1018,4 hPa 0,0 l/m 0,0 km/h (0 Bft) SW 225 0,5 C 16,1 C 0,0 km/h (0 Bft)
29.03.2014 20:25 6,0 C 66 % 1018,4 hPa 0,0 l/m 0,0 km/h (0 Bft) SW 225 0,1 C 16,1 C 0,0 km/h (0 Bft)
29.03.2014 20:30 5,7 C 67 % 1018,6 hPa 0,0 l/m 0,0 km/h (0 Bft) SW 225 0,1 C 16,1 C 0,0 km/h (0 Bft)
29.03.2014 20:35 4,8 C 66 % 1018,6 hPa 0,0 l/m 0,0 km/h (0 Bft) SW 225 -1,0 C 16,1 C 0,0 km/h (0 Bft)
29.03.2014 20:40 4,4 C 67 % 1018,6 hPa 0,0 l/m 0,0 km/h (0 Bft) SW 225 -1,2 C 16,1 C 0,0 km/h (0 Bft)
29.03.2014 20:45 4,1 C 69 % 1018,6 hPa 0,0 l/m 0,0 km/h (0 Bft) SW 225 -1,1 C 16,1 C 0,0 km/h (0 Bft)
29.03.2014 20:50 3,9 C 69 % 1018,3 hPa 0,0 l/m 0,0 km/h (0 Bft) SW 225 -1,3 C 16,1 C 0,0 km/h (0 Bft)
29.03.2014 20:55 3,6 C 69 % 1018,3 hPa 0,0 l/m 0,0 km/h (0 Bft) SW 225 -1,5 C 16,1 C 0,0 km/h (0 Bft)
29.03.2014 21:00 3,4 C 72 % 1018,3 hPa 0,0 l/m 0,0 km/h (0 Bft) SW 225 -1,2 C 16,1 C 0,0 km/h (0 Bft)
29.03.2014 21:05 3,3 C 74 % 1018,3 hPa 0,0 l/m 0,0 km/h (0 Bft) SW 225 -0,9 C 16,1 C 0,0 km/h (0 Bft)
29.03.2014 21:10 3,6 C 76 % 1018,2 hPa 0,0 l/m 0,0 km/h (0 Bft) SW 225 -0,2 C 16,1 C 0,0 km/h (0 Bft)
29.03.2014 21:15 3,6 C 74 % 1018,2 hPa 0,0 l/m 0,0 km/h (0 Bft) SW 225 -0,6 C 16,1 C 0,0 km/h (0 Bft)
29.03.2014 21:20 3,6 C 73 % 1018,2 hPa 0,0 l/m 0,0 km/h (0 Bft) SW 225 -0,8 C 16,1 C 0,0 km/h (0 Bft)
29.03.2014 21:25 3,2 C 73 % 1018,2 hPa 0,0 l/m 0,0 km/h (0 Bft) SW 225 -1,2 C 16,1 C 0,0 km/h (0 Bft)
29.03.2014 21:30 2,9 C 73 % 1018,2 hPa 0,0 l/m 0,0 km/h (0 Bft) SW 225 -1,5 C 16,1 C 0,0 km/h (0 Bft)
29.03.2014 21:35 2,6 C 73 % 1018,2 hPa 0,0 l/m 0,0 km/h (0 Bft) SW 225 -1,7 C 16,1 C 0,0 km/h (0 Bft)
29.03.2014 21:40 2,7 C 74 % 1018,2 hPa 0,0 l/m 0,0 km/h (0 Bft) SW 225 -1,5 C 16,1 C 0,0 km/h (0 Bft)
29.03.2014 21:45 3,1 C 73 % 1018,2 hPa 0,0 l/m 0,0 km/h (0 Bft) SW 225 -1,3 C 16,1 C 0,0 km/h (0 Bft)
29.03.2014 21:50 2,9 C 74 % 1018,2 hPa 0,0 l/m 0,0 km/h (0 Bft) SW 225 -1,3 C 16,1 C 0,0 km/h (0 Bft)
29.03.2014 21:55 2,5 C 75 % 1018,2 hPa 0,0 l/m 0,0 km/h (0 Bft) SW 225 -1,5 C 16,1 C 0,0 km/h (0 Bft)
29.03.2014 22:00 2,1 C 74 % 1018,2 hPa 0,0 l/m 0,0 km/h (0 Bft) SW 225 -2,0 C 16,1 C 0,0 km/h (0 Bft)
29.03.2014 22:05 1,9 C 75 % 1018,2 hPa 0,0 l/m 0,0 km/h (0 Bft) SW 225 -2,1 C 16,1 C 0,0 km/h (0 Bft)
29.03.2014 22:10 2,0 C 76 % 1018,2 hPa 0,0 l/m 0,0 km/h (0 Bft) SW 225 -1,8 C 16,1 C 0,0 km/h (0 Bft)
29.03.2014 22:15 1,9 C 77 % 1018,2 hPa 0,0 l/m 0,0 km/h (0 Bft) SW 225 -1,7 C 16,1 C 0,0 km/h (0 Bft)
29.03.2014 22:20 1,9 C 78 % 1018,2 hPa 0,0 l/m 0,0 km/h (0 Bft) SW 225 -1,5 C 16,1 C 0,0 km/h (0 Bft)
29.03.2014 22:25 1,8 C 78 % 1018,2 hPa 0,0 l/m 0,0 km/h (0 Bft) SW 225 -1,6 C 16,1 C 0,0 km/h (0 Bft)
29.03.2014 22:30 1,9 C 78 % 1018,1 hPa 0,0 l/m 0,0 km/h (0 Bft) SW 225 -1,5 C 16,1 C 0,0 km/h (0 Bft)
29.03.2014 22:35 2,0 C 76 % 1018,1 hPa 0,0 l/m 0,0 km/h (0 Bft) SW 225 -1,8 C 16,1 C 0,0 km/h (0 Bft)
29.03.2014 22:40 2,2 C 76 % 1018,1 hPa 0,0 l/m 0,0 km/h (0 Bft) SW 225 -1,6 C 16,1 C 0,0 km/h (0 Bft)
29.03.2014 22:45 1,7 C 75 % 1018,1 hPa 0,0 l/m 0,0 km/h (0 Bft) SW 225 -2,2 C 16,1 C 0,0 km/h (0 Bft)
29.03.2014 22:50 1,9 C 77 % 1017,8 hPa 0,0 l/m 0,0 km/h (0 Bft) SW 225 -1,7 C 16,1 C 0,0 km/h (0 Bft)
29.03.2014 22:55 1,5 C 76 % 1017,8 hPa 0,0 l/m 0,0 km/h (0 Bft) SW 225 -2,3 C 16,1 C 0,0 km/h (0 Bft)
29.03.2014 23:00 1,8 C 77 % 1017,8 hPa 0,0 l/m 0,0 km/h (0 Bft) SW 225 -1,8 C 16,1 C 0,0 km/h (0 Bft)
29.03.2014 23:05 2,1 C 76 % 1017,8 hPa 0,0 l/m 0,0 km/h (0 Bft) SW 225 -1,7 C 16,1 C 0,0 km/h (0 Bft)
29.03.2014 23:10 2,4 C 76 % 1017,9 hPa 0,0 l/m 0,0 km/h (0 Bft) SW 225 -1,4 C 16,1 C 0,0 km/h (0 Bft)
29.03.2014 23:15 1,5 C 75 % 1017,9 hPa 0,0 l/m 0,0 km/h (0 Bft) SW 225 -2,4 C 16,1 C 0,0 km/h (0 Bft)
29.03.2014 23:18 0,9 C 75 % 1017,9 hPa 0,0 l/m 0,0 km/h (0 Bft) SW 225 -3,0 C 16,1 C 0,0 km/h (0 Bft)
29.03.2014 23:20 0,9 C 75 % 1017,9 hPa 0,0 l/m 0,0 km/h (0 Bft) SW 225 -3,0 C 16,1 C 0,0 km/h (0 Bft)
29.03.2014 23:25 0,6 C 75 % 1017,9 hPa 0,0 l/m 0,0 km/h (0 Bft) SW 225 -3,3 C 16,1 C 0,0 km/h (0 Bft)
29.03.2014 23:30 1,2 C 77 % 1017,8 hPa 0,0 l/m 0,0 km/h (0 Bft) SW 225 -2,4 C 16,1 C 0,0 km/h (0 Bft)
29.03.2014 23:35 1,3 C 79 % 1017,8 hPa 0,0 l/m 0,0 km/h (0 Bft) SW 225 -1,9 C 16,1 C 0,0 km/h (0 Bft)
29.03.2014 23:40 0,9 C 79 % 1017,8 hPa 0,0 l/m 0,0 km/h (0 Bft) SW 225 -2,3 C 16,1 C 0,0 km/h (0 Bft)
29.03.2014 23:45 0,8 C 78 % 1017,8 hPa 0,0 l/m 0,0 km/h (0 Bft) SW 225 -2,6 C 16,1 C 0,0 km/h (0 Bft)
29.03.2014 23:50 0,6 C 78 % 1017,7 hPa 0,0 l/m 0,0 km/h (0 Bft) SW 225 -2,8 C 16,1 C 0,0 km/h (0 Bft)
29.03.2014 23:55 0,7 C 78 % 1017,7 hPa 0,0 l/m 0,0 km/h (0 Bft) SW 225 -2,7 C 16,1 C 0,0 km/h (0 Bft)
_ Min-Zeit 05:50 15:45 23:55 - 23:55 - - 06:50 23:55 23:55
Minimum _ -2,9 C 27 % 1017,7 hPa - 0,0 km/h (0 Bft) - - -5,3 C 16,1 C 0,0 km/h (0 Bft)
_ Max-Zeit 11:25 04:50 12:45 23:55 23:55 - - 07:40 23:55 23:55
Maximum _ 19,5 C 89 % 1021,4 hPa 0,0 l/m 0,0 km/h
SW (0 Bft)
- - 3,7 C 16,1 C 0,0 km/h
SW (0 Bft)
Durchschnitt _ 7,7 C 60 % 1019,1 hPa #0,0 l/m 0,0 km/h (0 Bft) - - - -1,1 C 16,1 C 0,0 km/h (0 Bft)